This demonstration page uses our WeatherBlox Daily Observations layout. Learn more.

Left ArrowRight Arrow

Hourly Observations for July 3, 2018

Temp ( °F °C ) Dew Point ( °F °C ) Humidity (%) Winds ( mph kmh ) Pressure ( in mb ) Visibility ( mi km ) Precip ( " mm )
12:59 am 00:59 Clear 81 27.2 74 23.3 79 79 S 5 7 30.11 1020 9 14 0.00 0.00
1:59 am 01:59 Partly Cloudy 80 26.7 73 22.8 79 79 S 3 6 30.11 1020 9 14 0.00 0.00
2:59 am 02:59 Mostly Clear 78 25.6 72 22.2 82 82 Calm 30.11 1020 9 14 0.00 0.00
3:59 am 03:59 Mostly Clear 76 24.4 72 22.2 88 88 Calm 30.11 1020 8 13 0.00 0.00
4:59 am 04:59 Mostly Clear 76 24.4 72 22.2 88 88 Calm 30.11 1020 8 13 0.00 0.00
5:59 am 05:59 Partly Cloudy 76 24.4 71 21.7 85 85 SE 3 6 30.12 1020 7 11 0.00 0.00
6:59 am 06:59 Mostly Sunny 79 26.1 72 22.2 79 79 Calm 30.14 1021 7 11 0.00 0.00
7:59 am 07:59 Sunny 82 27.8 73 22.8 74 74 Calm 30.14 1021 8 13 0.00 0.00
8:59 am 08:59 Mostly Sunny 84 28.9 71 21.7 65 65 Calm 30.15 1021 9 14 0.00 0.00
9:59 am 09:59 Mostly Sunny 87 30.6 72 22.2 61 61 E 5 7 30.15 1021 9 14 0.00 0.00
10:59 am 10:59 Partly Cloudy 88 31.1 72 22.2 59 59 NE 9 15 30.17 1022 9 14 0.00 0.00
11:59 am 11:59 Mostly Sunny 87 30.6 73 22.8 63 63 ENE 12 19 30.18 1022 9 14 0.00 0.00
12:59 pm 12:59 Mostly Sunny 88 31.1 71 21.7 57 57 ENE 12 19 30.18 1022 9 14 0.00 0.00
1:59 pm 13:59 Mostly Sunny 89 31.7 69 20.6 52 52 E 12 19 30.18 1022 10 16 0.00 0.00
2:59 pm 14:59 Mostly Sunny 90 32.2 70 21.1 52 52 NE 13 20 30.17 1022 10 16 0.00 0.00
3:59 pm 15:59 Mostly Sunny 88 31.1 70 21.1 55 55 ENE 13 20 30.17 1022 9 14 0.00 0.00
4:59 pm 16:59 Mostly Sunny 87 30.6 72 22.2 61 61 E 12 19 30.16 1021 9 14 0.00 0.00
5:59 pm 17:59 Partly Cloudy 87 30.6 74 23.3 65 65 ENE 10 17 30.15 1021 9 14 0.00 0.00
6:59 pm 18:59 Partly Cloudy 85 29.4 73 22.8 68 68 E 10 17 30.14 1021 9 14 0.00 0.00
7:59 pm 19:59 Partly Cloudy 83 28.3 73 22.8 72 72 ESE 7 11 30.15 1021 9 14 0.00 0.00
8:59 pm 20:59 Mostly Clear 81 27.2 72 22.2 74 74 SE 6 9 30.16 1022 10 16 0.00 0.00
9:59 pm 21:59 Mostly Clear 79 26.1 72 22.2 79 79 Calm 30.19 1023 9 14 0.00 0.00
10:59 pm 22:59 Mostly Clear 79 26.1 73 22.8 82 82 Calm 30.21 1023 8 13 0.00 0.00
11:59 pm 23:59 Partly Cloudy 79 26.1 74 23.3 85 85 Calm 30.21 1023 8 13 0.00 0.00

Powered by AerisWeather